FLOCK 4BE-20

Last updated on Mon Sep 16 2024 00:02:03 GMT+0000 (Coordinated Universal Time)

1 60489U 24149X 24259.16430789 .00016691 00000+0 80988-3 0 9995 2 60489 97.4367 334.2469 0005403 21.4357 338.7103 15.18548199 4459
UTC large
Height (km)
Speed (km/s)
/
Latitude / Longitude
Inclination (degrees)
Orbital Period (minutes)
Azimuth
Elevation
Range (km)
Doppler Factor

Next 0 passes for location: London (51.5072 / 0.1276)

Sorry there are no passes over London.